Meknes, Morocco

3:27 PM WEST on September 19, 2017 (GMT +0100)
Meknes

Weather History for GMFM - October, 2013

Change the Weather History Date:

Tuesday, October 1, 2013

  Actual Average (GMFF) Record (GMFF)
Temperature  
Mean Temperature 73 °F -  
Max Temperature 86 °F 76 °F 93 °F (2004)
Min Temperature 60 °F 55 °F 51 °F (1999)
Cooling Degree Days 8    
Growing Degree Days 23 (Base 50)    
Moisture  
Dew Point 61 °F    
Average Humidity 68    
Maximum Humidity 94    
Minimum Humidity 30    
Precipitation  
Precipitation 0.00 in 0.06 in - ()
Sea Level Pressure  
Sea Level Pressure 29.97 in    
Wind  
Wind Speed 3 mph ()    
Max Wind Speed 10 mph    
Max Gust Speed -    
Visibility 5.0 miles    
Events      
Averages and records for this station are not official NWS values.
T = Trace of Precipitation, MM = Missing Value Source: Averaged Metar Reports

Daily Weather History Graph

Daily Weather History Graph

Search for Another Location

Airport or City:

Trip Planner

Search our weather history database for the weather conditions in past years. The results will help you decide how hot, cold, wet, or windy it might be!

Date:

Astronomy

Oct. 01, 2013 Rise Set
Actual Time 7:16 AM WEST 7:06 PM WEST
Civil Twilight 6:51 AM WEST 7:31 PM WEST
Nautical Twilight 6:22 AM WEST 8:00 PM WEST
Astronomical Twilight 5:53 AM WEST 8:29 PM WEST
Moon 3:46 AM WEST (10/1) 4:55 PM WEST (10/1)
Length of Visible Light 12h 39m
Length of Day
11h 49m
Waning Crescent, 13% of the Moon is Illuminated
Oct 1
Waning Crescent
Oct 5
New
Oct 12
First Quarter
Oct 19
Full
Oct 27
Last Quarter

Hourly Weather History & Observations

Time (WEST) Temp. Heat Index Dew Point Humidity Pressure Visibility Wind Dir Wind Speed Gust Speed Precip Events Conditions
12:00 AM 66.2 °F - 60.8 °F 83% 30.04 in 3.7 mi Calm Calm - N/A   Partly Cloudy
1:00 AM 65 °F - 60 °F 80% 29.98 in 4 mi Calm Calm - -   Scattered Clouds
1:00 AM 64.4 °F - 60.8 °F 88% 30.04 in 3.7 mi Calm Calm - N/A   Partly Cloudy
2:00 AM 64.4 °F - 59.0 °F 83% 30.01 in 3.7 mi ESE 2.3 mph - N/A   Partly Cloudy
3:00 AM 64.4 °F - 59.0 °F 83% 30.01 in 5.0 mi SE 2.3 mph - N/A   Clear
4:00 AM 62 °F - 59 °F 87% 29.94 in 5 mi ESE 2.3 mph - -  
4:00 AM 62.6 °F - 59.0 °F 88% 29.98 in 5.0 mi East 2.3 mph - N/A   Clear
6:00 AM 62.6 °F - 59.0 °F 88% 29.98 in 5.0 mi SSE 3.5 mph - N/A   Clear
7:00 AM 60 °F - 58 °F 90% 29.96 in 4 mi Calm Calm - -   Clear
7:00 AM 60.8 °F - 57.2 °F 88% 30.01 in 3.7 mi Calm Calm - N/A   Unknown
8:00 AM 62.6 °F - 60.8 °F 94% 30.01 in 3.1 mi ESE 2.3 mph - N/A   Unknown
9:00 AM 68.0 °F - 62.6 °F 83% 30.04 in 3.1 mi East 2.3 mph - N/A   Unknown
10:00 AM 73 °F - 62 °F 60% 29.95 in 5 mi East 4.6 mph - -   Clear
10:00 AM 73.4 °F - 62.6 °F 69% 30.04 in 5.0 mi East 4.6 mph - N/A   Partly Cloudy
11:00 AM 78.8 °F - 60.8 °F 54% 30.04 in - East 2.3 mph - N/A   Clear
12:00 PM 80.6 °F 81.8 °F 62.6 °F 54% 30.01 in - NNW 4.6 mph - N/A   Clear
1:00 PM 82 °F - 60 °F 36% 29.88 in 6 mi NNW 2.3 mph - -  
1:00 PM 80.6 °F 81.8 °F 62.6 °F 54% 29.98 in - NNW 2.3 mph - N/A   Clear
2:00 PM 84.2 °F 83.8 °F 59.0 °F 42% 29.98 in 6.2 mi NNW 4.6 mph - N/A   Partly Cloudy
3:00 PM 84.2 °F 83.8 °F 59.0 °F 42% 29.95 in 6.2 mi WNW 4.6 mph - N/A   Partly Cloudy
4:00 PM 85 °F - 58 °F 30% 29.82 in 6 mi WSW 3.5 mph - -   Scattered Clouds
4:00 PM 86.0 °F 85.4 °F 59.0 °F 40% 29.95 in 6.2 mi WSW 3.5 mph - N/A   Partly Cloudy
5:00 PM 84.2 °F 83.8 °F 59.0 °F 42% 29.95 in 6.2 mi NNW 6.9 mph - N/A   Partly Cloudy
6:00 PM 80.6 °F 81.5 °F 60.8 °F 51% 29.95 in 6.2 mi NW 10.4 mph - N/A   Partly Cloudy
7:00 PM 78 °F - 61 °F 46% 29.84 in 6 mi NW 8.1 mph - -  
7:00 PM 78.8 °F - 60.8 °F 54% 29.95 in - NW 8.1 mph - N/A   Clear
8:00 PM 73.4 °F - 62.6 °F 69% 29.98 in - NW 8.1 mph - N/A   Clear
9:00 PM 71.6 °F - 62.6 °F 73% 29.98 in - WNW 8.1 mph - N/A   Clear
10:00 PM 69 °F - 64 °F 77% 29.92 in 6 mi West 4.6 mph - -  
10:00 PM 68.0 °F - 64.4 °F 88% 29.98 in - West 4.6 mph - N/A   Clear
11:00 PM 68.0 °F - 62.6 °F 83% 30.01 in - West 4.6 mph - N/A   Clear